When you browse on this site, cookies collect data to enhance your experience and personalize the content and advertising you see.
Visit our Privacy Policy to learn more. By continuing to use the site, you agree to this use of cookies and data.
  • In Sweden
  • List of Countries
  • For 7 days
  • Water Temperature
  • Satellite Maps
  • Weather Map
  • Weather Widgets
  • user-avatar
    Login

    Hourly Weather Santa Bárbara

    Today, 21 November, Wednesday

    Time Temperature Precipitation Wind Pressure Humidity
    00:00 +24°C° 0.1 mm 1 mps 724 mmHg 97%
    01:00 +23°C° 0.1 mm 1 mps 723 mmHg 97%
    02:00 +23°C° 0.1 mm 1 mps 723 mmHg 97%
    03:00 +23°C° 0.1 mm 1 mps 723 mmHg 97%
    04:00 +23°C° 0.1 mm 1 mps 723 mmHg 97%
    05:00 +23°C° 0.1 mm 1 mps 723 mmHg 96%
    06:00 +23°C° 0.1 mm 1 mps 723 mmHg 96%
    07:00 +24°C° 0.1 mm 1 mps 724 mmHg 92%
    08:00 +25°C° 0.1 mm 1 mps 724 mmHg 88%
    09:00 +26°C° 0.1 mm 1 mps 725 mmHg 85%
    10:00 +27°C° 0.1 mm 1 mps 724 mmHg 80%
    11:00 +28°C° 0.1 mm 2 mps 724 mmHg 75%
    12:00 +29°C° 0.1 mm 2 mps 724 mmHg 70%
    13:00 +28°C° 0.3 mm 2 mps 723 mmHg 72%
    14:00 +28°C° 0.3 mm 2 mps 723 mmHg 74%
    15:00 +28°C° 0.3 mm 2 mps 722 mmHg 76%
    16:00 +26°C° 0.4 mm 2 mps 722 mmHg 82%
    17:00 +25°C° 0.4 mm 1 mps 722 mmHg 88%
    18:00 +24°C° 0.4 mm 1 mps 723 mmHg 94%
    19:00 +23°C° 0.1 mm 1 mps 723 mmHg 95%
    20:00 +23°C° 0.1 mm 1 mps 724 mmHg 96%
    21:00 +23°C° 0.1 mm 1 mps 724 mmHg 97%
    22:00 +23°C° 0.1 mm 1 mps 724 mmHg 97%
    23:00 +23°C° 0.1 mm 1 mps 724 mmHg 97%

    Tomorrow, 22 November, Thursday

    Time Temperature Precipitation Wind Pressure Humidity
    00:00 +23°C° 0.1 mm 1 mps 724 mmHg 97%
    01:00 +23°C° 0.1 mm 1 mps 724 mmHg 97%
    02:00 +23°C° 0.1 mm 1 mps 724 mmHg 97%
    03:00 +23°C° 0.1 mm 1 mps 723 mmHg 97%
    04:00 +22°C° 0.1 mm 1 mps 723 mmHg 97%
    05:00 +22°C° 0.1 mm 1 mps 723 mmHg 97%
    06:00 +20°C° 0.1 mm 0 mps 723 mmHg 96%
    07:00 +24°C° 0 mm 1 mps 724 mmHg 90%
    08:00 +25°C° 0 mm 1 mps 724 mmHg 83%
    09:00 +26°C° 0 mm 1 mps 725 mmHg 77%
    10:00 +28°C° 0 mm 1 mps 724 mmHg 70%
    11:00 +29°C° 0 mm 2 mps 724 mmHg 64%
    12:00 +30°C° 0 mm 2 mps 723 mmHg 58%
    13:00 +30°C° 0 mm 2 mps 723 mmHg 60%
    14:00 +30°C° 0 mm 2 mps 722 mmHg 61%
    15:00 +30°C° 0 mm 2 mps 721 mmHg 63%
    16:00 +28°C° 0.2 mm 2 mps 721 mmHg 72%
    17:00 +26°C° 0.2 mm 1 mps 722 mmHg 82%
    18:00 +24°C° 0.2 mm 1 mps 722 mmHg 92%
    19:00 +24°C° 0.1 mm 1 mps 723 mmHg 94%
    20:00 +23°C° 0.1 mm 1 mps 723 mmHg 95%
    21:00 +21°C° 0.1 mm 0 mps 724 mmHg 97%
    22:00 +21°C° 0 mm 0 mps 724 mmHg 97%
    23:00 +21°C° 0 mm 0 mps 723 mmHg 97%

    Day after tomorrow, 23 November, Friday

    Time Temperature Precipitation Wind Pressure Humidity
    00:00 +21°C° 0 mm 0 mps 723 mmHg 97%
    01:00 +20°C° 0.1 mm 0 mps 723 mmHg 97%
    02:00 +20°C° 0.1 mm 0 mps 722 mmHg 97%
    03:00 +20°C° 0.1 mm 0 mps 721 mmHg 97%
    04:00 +20°C° 0 mm 0 mps 722 mmHg 97%
    05:00 +20°C° 0 mm 0 mps 722 mmHg 97%
    06:00 +19°C° 0 mm 0 mps 722 mmHg 97%
    07:00 +21°C° 0 mm 0 mps 723 mmHg 90%
    08:00 +25°C° 0 mm 1 mps 723 mmHg 82%
    09:00 +27°C° 0 mm 1 mps 724 mmHg 75%
    10:00 +28°C° 0 mm 1 mps 723 mmHg 68%
    11:00 +29°C° 0 mm 1 mps 722 mmHg 62%
    12:00 +31°C° 0 mm 1 mps 722 mmHg 56%
    13:00 +30°C° 0 mm 2 mps 721 mmHg 57%
    14:00 +30°C° 0 mm 2 mps 720 mmHg 58%
    15:00 +30°C° 0 mm 2 mps 719 mmHg 60%
    16:00 +28°C° 0 mm 1 mps 720 mmHg 70%
    17:00 +26°C° 0 mm 1 mps 720 mmHg 79%
    18:00 +24°C° 0 mm 1 mps 720 mmHg 89%
    19:00 +24°C° 0 mm 1 mps 721 mmHg 91%
    20:00 +21°C° 0 mm 0 mps 721 mmHg 94%
    21:00 +21°C° 0 mm 0 mps 722 mmHg 96%
    22:00 +21°C° 0 mm 0 mps 722 mmHg 96%
    23:00 +21°C° 0 mm 0 mps 722 mmHg 96%

    24 November, Saturday

    Time Temperature Precipitation Wind Pressure Humidity
    00:00 +21°C° 0 mm 0 mps 721 mmHg 96%
    01:00 +21°C° 0 mm 0 mps 721 mmHg 97%
    02:00 +20°C° 0 mm 0 mps 720 mmHg 97%
    03:00 +20°C° 0 mm 0 mps 720 mmHg 97%
    04:00 +20°C° 0 mm 0 mps 720 mmHg 97%
    05:00 +19°C° 0 mm 0 mps 721 mmHg 97%
    06:00 +19°C° 0 mm 0 mps 721 mmHg 97%
    07:00 +22°C° 0 mm 0 mps 721 mmHg 87%
    08:00 +24°C° 0 mm 0 mps 722 mmHg 77%
    09:00 +27°C° 0 mm 0 mps 722 mmHg 67%
    10:00 +30°C° 0 mm 1 mps 722 mmHg 59%
    11:00 +32°C° 0 mm 1 mps 721 mmHg 52%
    12:00 +34°C° 0 mm 1 mps 721 mmHg 44%
    13:00 +34°C° 0 mm 1 mps 720 mmHg 45%
    14:00 +33°C° 0 mm 1 mps 719 mmHg 46%
    15:00 +33°C° 0 mm 1 mps 719 mmHg 46%
    16:00 +31°C° 0 mm 1 mps 719 mmHg 57%
    17:00 +28°C° 0 mm 1 mps 719 mmHg 68%
    18:00 +26°C° 0 mm 1 mps 719 mmHg 79%
    19:00 +23°C° 0 mm 0 mps 720 mmHg 84%
    20:00 +22°C° 0 mm 0 mps 721 mmHg 89%
    21:00 +21°C° 0 mm 0 mps 721 mmHg 94%
    22:00 +21°C° 0 mm 0 mps 721 mmHg 94%
    23:00 +21°C° 0 mm 0 mps 721 mmHg 94%

    25 November, Sunday

    Time Temperature Precipitation Wind Pressure Humidity
    00:00 +20°C° 0 mm 0 mps 721 mmHg 94%
    01:00 +20°C° 0 mm 0 mps 720 mmHg 94%
    02:00 +20°C° 0 mm 0 mps 720 mmHg 94%
    03:00 +20°C° 0 mm 0 mps 720 mmHg 94%
    04:00 +22°C° 0 mm 1 mps 720 mmHg 94%
    05:00 +22°C° 0 mm 1 mps 720 mmHg 94%
    06:00 +21°C° 0 mm 1 mps 721 mmHg 94%
    07:00 +24°C° 0 mm 1 mps 721 mmHg 82%
    08:00 +27°C° 0 mm 1 mps 722 mmHg 70%
    09:00 +28°C° 0 mm 0 mps 722 mmHg 58%
    10:00 +32°C° 0 mm 1 mps 722 mmHg 51%
    11:00 +34°C° 0 mm 1 mps 721 mmHg 45%
    12:00 +35°C° 0 mm 1 mps 721 mmHg 39%
    13:00 +35°C° 0 mm 1 mps 720 mmHg 40%
    14:00 +35°C° 0 mm 1 mps 719 mmHg 40%
    15:00 +35°C° 0 mm 1 mps 719 mmHg 41%
    16:00 +32°C° 0 mm 1 mps 719 mmHg 52%
    17:00 +29°C° 0 mm 1 mps 719 mmHg 63%
    18:00 +27°C° 0 mm 1 mps 719 mmHg 73%
    19:00 +24°C° 0 mm 0 mps 720 mmHg 79%
    20:00 +23°C° 0 mm 0 mps 721 mmHg 85%
    21:00 +22°C° 0 mm 0 mps 721 mmHg 91%
    22:00 +22°C° 0 mm 0 mps 721 mmHg 91%
    23:00 +21°C° 0 mm 0 mps 721 mmHg 92%

    26 November, Monday

    Time Temperature Precipitation Wind Pressure Humidity
    00:00 +21°C° 0 mm 0 mps 721 mmHg 92%
    01:00 +21°C° 0 mm 0 mps 721 mmHg 92%
    02:00 +21°C° 0 mm 0 mps 721 mmHg 92%
    03:00 +21°C° 0 mm 0 mps 721 mmHg 92%
    04:00 +20°C° 0 mm 0 mps 721 mmHg 93%
    05:00 +20°C° 0 mm 0 mps 721 mmHg 93%
    06:00 +20°C° 0 mm 0 mps 722 mmHg 93%
    07:00 +25°C° 0 mm 1 mps 722 mmHg 84%
    08:00 +27°C° 0 mm 1 mps 723 mmHg 75%
    09:00 +30°C° 0 mm 1 mps 724 mmHg 65%
    10:00 +30°C° 0.4 mm 1 mps 723 mmHg 64%
    11:00 +31°C° 0.4 mm 1 mps 722 mmHg 62%
    12:00 +32°C° 0.4 mm 2 mps 722 mmHg 61%
    13:00 +31°C° 0.6 mm 2 mps 721 mmHg 62%
    14:00 +31°C° 0.6 mm 2 mps 720 mmHg 64%
    15:00 +31°C° 0.6 mm 2 mps 720 mmHg 65%
    16:00 +29°C° 0.8 mm 1 mps 720 mmHg 74%
    17:00 +27°C° 0.8 mm 1 mps 721 mmHg 82%
    18:00 +25°C° 0.8 mm 1 mps 721 mmHg 90%
    19:00 +24°C° 0.3 mm 1 mps 721 mmHg 93%
    20:00 +24°C° 0.3 mm 1 mps 722 mmHg 95%
    21:00 +21°C° 0.3 mm 0 mps 722 mmHg 97%
    22:00 +21°C° 0.2 mm 0 mps 722 mmHg 97%
    23:00 +21°C° 0.2 mm 0 mps 722 mmHg 97%
    Show more